weather.gov     
National Weather Service

Other Surface Observations
NWS Homepage
This page is being discontinued on March 12, 2014.
The same data is available at this site. Please update your bookmarks.
Thank you, and we apologize for the inconvenience.
Please send an email to SR-SRH.Webmaster@noaa.gov with any concerns.


Current Version
Previous Version:    01  02  03  04  05  06  07  08  09  10  11  12  13  14  15  16  17  18  19  20  21  22  23  24  25  26  27  28  29  30  
   31  32  33  34  35  36  37  38  39  40  41  42  43  44  45  46  47  48  49  50  51  52  53  54  55  56  57  58  59  60  
[Printable]
695
SXUS52 KTAE 160505
OSOTAE
OSOTAE
North Florida/South Alabama/Southwest Georgia Weather Roundup
National Weather Service Tallahassee Florida
100 AM EDT TUE SEP 16 2014

Note: "fair" indicates few or no clouds below 12,000 feet with no
significant weather and/or obstructions to visibility.

!FLZ017-115-028-034-025-160600
...North Florida...

CITY           SKY/WX    TMP DP  RH WIND       PRES   REMARKS
TALLAHASSEE    CLOUDY    77  75  93 S14G32    30.10F
APALACHICOLA   HVY RAIN  78  75  90 W8        30.09F FOG
PERRY          TSTM      72  72 100 SW5       30.14R
CROSS CITY       N/A    N/A N/A N/A MISG      30.12F
HOMERVILLE     CLOUDY    75  75 100 CALM      30.11F FOG
JACKSONVILLE   CLOUDY    74  74 100 SW3       30.11F
$$

!FLZ112-006-005-002-011-160600
...Florida Panhandle...

CITY           SKY/WX    TMP DP  RH WIND       PRES   REMARKS
MARIANNA       CLOUDY    77  77 100 S7        30.08F
BONIFAY        NOT AVBL
PANAMA CITY NW FAIR      78  75  90 CALM      30.08F
TYNDALL AFB    DRIZZLE   77  75  94 N6        30.08F
TYND DRONE APT NOT AVBL
DE FUNIAK SPR  FAIR      74  73  98 CALM      30.10S
EGLIN AFB      MOCLDY    79  76  89 CALM      30.08F
DESTIN         MOCLDY    81  77  88 CALM      30.08F
HURLBURT       NOT AVBL
CRESTVIEW      CLOUDY    77  75  93 CALM      30.10F
PENSACOLA      CLOUDY    75  75 100 CALM      30.08F
$$

!ALZ063-066-160600
...South Alabama...

CITY           SKY/WX    TMP DP  RH WIND       PRES   REMARKS
DOTHAN         CLOUDY    75  74  96 SE3       30.12F
OZARK CAIRNS   CLOUDY    76  75  96 CALM      30.08F
FT RUCKER HELI CLOUDY    75  73  93 MISG      30.07F
RUCKER HELI 3  MOCLDY    77  74  91 SE3       30.10F
RUCKER HELI 2  FAIR      75  73  93 N3        30.08F
FLORALA APT    CLOUDY    76  74  93 CALM      30.10F
ANDALUSIA      CLOUDY    80  74  81 CALM      30.09S
TROY           CLOUDY    76  75  97 CALM      30.10S
EUFALA         FAIR      77  74  90 CALM      30.07F
MOBILE         CLOUDY    77  76  96 CALM      30.09F
$$

!GAZ120>161-160600
...Southwest and South Central Georgia...

CITY           SKY/WX    TMP DP  RH WIND       PRES   REMARKS
THOMASVILLE    CLOUDY    77  77 100 CALM      30.11F THUNDER
BAINBRIDGE     MOCLDY    79  77  94 CALM      30.09F
MOODY AFB      CLOUDY    73  72  96 SE3       30.10F
VALDOSTA       CLOUDY    75  74  96 SE3       30.11F
MOULTRIE       CLOUDY    73  73 100 CALM      30.10F
BLAKELY        MOCLDY    77  75  94 CALM        N/A
ALBANY         CLOUDY    76  74  93 E3        30.11F
TIFTON         CLOUDY    73  73  99 S3        30.10F
FITZGERALD     FAIR      74  72  91 CALM      30.12F
CORDELE        FAIR      75  73  92 CALM      30.09F
AMERICUS       FAIR      72  72 100 CALM      30.08R
$$

!GMZ750-755-770-775-160600
...Coastal and Buoy Obs...

STATION/POSITION TIME  TEMP    WIND        PRES    VSBY  WAVE
                       AIR SEA DIR/SP/G                  HT/PER
                 (UTC) (F)     (DEG/KT/KT) (MB)    (MI)  (FT/S)
KEATON BEACH     0400   83     210/ 10/ 13 1020.2S
CEDAR KEY        0354   81     350/  1/  2 1021.1R
C TOWER          0400   77     210/ 15/ 17 1020.2F
APALACHICOLA BUO 0500   77 85  300/  8/ 12 1021.0R         3/ 4
PANAMA CITY BUOY 0337   84 86  250/  8/ 10 1019.9          3/ 6
MOBILE BUOY      0437   83 86  240/  8/ 10 1019.6R         3/ 7
ORANGE BCH AL BU 0500   84 86  260/  6/  8 1018.5F         3/ 6
$$




U.S. Dept. of Commerce
NOAA National Weather Service
1325 East West Highway
Silver Spring, MD 20910
E-mail: w-nws.webmaster@noaa.gov
Page last modified: May 16, 2007
NATIONAL WEATHER SERVICE: for Safety, for Work, for Fun - FOR LIFE